Location: Cañada de la Miga
(34.7595°N, 106.2317°W)
Time: 03:44:38
(UTC+00:00)

A-11 Canister half - All Passes

Search period start: 30 November 2021 00:00
Search period end: 10 December 2021 00:00
Orbit: 1516 x 1684 km, 47.2° (Epoch: 29 November)

Date Brightness Start Highest point End Pass type
(mag) Time Alt. Az. Time Alt. Az. Time Alt. Az.
30 Nov - 12:32:45 10° S 12:40:28 28° SE 12:48:22 10° ENE visible
30 Nov - 14:34:52 10° SW 14:44:34 88° NW 14:54:40 10° NE daylight
30 Nov - 16:41:16 10° W 16:50:36 45° NNW 17:00:13 10° ENE daylight
30 Nov - 18:48:18 10° WNW 18:57:47 44° NNE 19:07:22 10° E daylight
30 Nov - 20:53:49 10° NW 21:04:03 82° NE 21:14:13 10° ESE daylight
30 Nov - 22:59:45 10° WNW 23:08:28 34° SW 23:17:06 10° S daylight
01 Dec - 12:10:13 10° S 12:17:38 26° SE 12:25:13 10° ENE visible
01 Dec - 14:11:58 10° SW 14:21:38 88° SE 14:31:41 10° NE daylight
01 Dec - 16:18:12 10° W 16:27:34 46° NNW 16:37:12 10° ENE daylight
01 Dec - 18:25:18 10° WNW 18:34:43 43° N 18:44:16 10° E daylight
01 Dec - 20:30:53 10° NW 20:41:05 78° NNE 20:51:15 10° ESE daylight
01 Dec - 22:36:40 10° WNW 22:45:35 36° SW 22:54:26 10° SSE daylight
02 Dec - 11:47:43 10° S 11:54:47 24° SE 12:02:00 10° ENE visible
02 Dec - 13:49:05 10° SW 13:58:42 84° SE 14:08:42 10° NE daylight
02 Dec - 15:55:10 10° W 16:04:31 47° NNW 16:14:10 10° NE daylight
02 Dec - 18:02:18 10° WNW 18:11:39 42° N 18:21:10 10° ENE daylight
02 Dec - 20:07:55 10° NW 20:18:06 75° NNE 20:28:15 10° ESE daylight
02 Dec - 22:13:36 10° WNW 22:22:43 39° SW 22:31:46 10° SSE daylight
03 Dec - 11:25:17 10° S 11:31:57 22° SE 11:38:47 10° E visible
03 Dec - 13:26:12 10° SW 13:35:46 80° SE 13:45:44 10° NE visible
03 Dec - 15:32:07 10° W 15:41:29 48° NNW 15:51:10 10° NE daylight
03 Dec - 17:39:16 10° WNW 17:48:35 42° N 17:58:03 10° ENE daylight
03 Dec - 19:44:58 10° NW 19:55:06 72° NNE 20:05:16 10° ESE daylight
03 Dec - 21:50:33 10° WNW 21:59:49 42° SW 22:09:02 10° SSE daylight
04 Dec - 11:02:54 10° SSE 11:09:08 20° SE 11:15:30 10° E visible
04 Dec - 13:03:21 10° SW 13:12:51 75° SE 13:22:45 10° ENE visible
04 Dec - 15:09:05 10° W 15:18:27 50° NNW 15:28:09 10° NE daylight
04 Dec - 17:16:16 10° WNW 17:25:31 41° N 17:34:58 10° ENE daylight
04 Dec - 19:22:01 10° NW 19:32:07 69° NNE 19:42:15 10° ESE daylight
04 Dec - 21:27:30 10° WNW 21:36:56 45° SW 21:46:19 10° SSE daylight
05 Dec - 10:40:34 10° SSE 10:46:19 18° ESE 10:52:10 10° E visible
05 Dec - 12:40:31 10° SW 12:49:57 71° SE 12:59:46 10° ENE visible
05 Dec - 14:46:03 10° W 14:55:25 51° NNW 15:05:09 10° NE daylight
05 Dec - 16:53:14 10° WNW 17:02:27 41° N 17:11:51 10° ENE daylight
05 Dec - 18:59:04 10° NW 19:09:07 66° NNE 19:19:13 10° ESE daylight
05 Dec - 21:04:29 10° WNW 21:14:02 48° SW 21:23:33 10° SSE daylight
06 Dec - 10:18:19 10° SSE 10:23:30 16° ESE 10:28:44 10° E visible
06 Dec - 12:17:41 10° SW 12:27:03 67° SE 12:36:47 10° ENE visible
06 Dec - 14:23:02 10° W 14:32:24 53° NNW 14:42:09 10° NE daylight
06 Dec - 16:30:13 10° WNW 16:39:22 40° N 16:48:45 10° ENE daylight
06 Dec - 18:36:08 10° NW 18:46:06 63° NNE 18:56:12 10° ESE daylight
06 Dec - 20:41:29 10° WNW 20:51:07 52° SW 21:00:47 10° SSE daylight
06 Dec - 22:53:33 10° WSW 22:54:33 10° WSW 22:55:34 10° SW daylight
07 Dec - 09:56:12 10° SSE 10:00:41 14° ESE 10:05:13 10° E visible
07 Dec - 11:54:53 10° SW 12:04:09 63° SE 12:13:47 10° ENE visible
07 Dec - 14:00:01 10° W 14:09:24 55° NNW 14:19:09 10° NE daylight
07 Dec - 16:07:12 10° WNW 16:16:18 40° N 16:25:40 10° ENE daylight
07 Dec - 18:13:10 10° NW 18:23:06 61° NNE 18:33:08 10° ESE daylight
07 Dec - 20:18:29 10° WNW 20:28:13 55° SW 20:37:59 10° SSE daylight
07 Dec - 22:28:38 10° WSW 22:31:43 12° WSW 22:34:49 10° SW daylight
08 Dec - 09:34:16 10° SE 09:37:53 13° ESE 09:41:30 10° E visible
08 Dec - 11:32:05 10° SSW 11:41:16 59° SE 11:50:47 10° ENE visible
08 Dec - 13:37:00 10° WSW 13:46:24 57° NNW 13:56:10 10° NE daylight
08 Dec - 15:44:10 10° WNW 15:53:14 40° N 16:02:33 10° ENE daylight
08 Dec - 17:50:13 10° NW 18:00:05 58° NNE 18:10:05 10° ESE daylight
08 Dec - 19:55:29 10° WNW 20:05:18 59° SW 20:15:09 10° SSE daylight
08 Dec - 22:04:41 10° W 22:08:53 13° WSW 22:13:05 10° SSW daylight
09 Dec - 09:12:45 10° SE 09:15:04 11° ESE 09:17:23 10° ESE visible
09 Dec - 11:09:18 10° SSW 11:18:23 55° SE 11:27:47 10° ENE visible
09 Dec - 13:14:00 10° WSW 13:23:24 59° NNW 13:33:11 10° NE visible
09 Dec - 15:21:08 10° WNW 15:30:10 40° N 15:39:29 10° ENE daylight
09 Dec - 17:27:16 10° NW 17:37:04 56° NNE 17:47:01 10° ESE daylight
09 Dec - 19:32:29 10° WNW 19:42:22 62° SW 19:52:19 10° SE daylight
09 Dec - 21:41:01 10° W 21:46:02 15° WSW 21:51:04 10° SSW daylight
